CW9098 Weather Reports


time (UTC)temp
F
wind
direction
speed
knots
gust
knots
rain 1hr
in
rain 24hr
in
rain mn
in
humidity
%
barometer
mb
20260509150619 53 221 1.7 7.0 0.00 0.00 0.00 87 1009.8
20260509150133 53 201 5.2 7.0 0.00 0.00 0.00 87 1009.7
20260509145629 53 195 2.6 6.1 0.00 0.00 0.00 87 1009.8
20260509145123 53 195 1.7 6.1 0.00 0.00 0.00 87 1009.9
20260509144617 52 201 1.7 6.1 0.00 0.00 0.00 87 1009.9
20260509144134 52 225 2.6 6.1 0.00 0.00 0.00 87 1010.0
20260509143621 52 205 4.3 6.1 0.00 0.00 0.00 87 1009.9
20260509143135 52 212 0.9 6.1 0.00 0.00 0.00 87 1009.9
20260509142623 52 224 2.6 7.8 0.00 0.00 0.00 87 1010.0
20260509142135 52 214 2.6 7.8 0.00 0.00 0.00 87 1010.0
20260509141622 52 230 4.3 7.0 0.00 0.00 0.00 87 1010.1
20260509141138 52 222 2.6 7.0 0.00 0.00 0.00 87 1010.0
20260509140625 52 197 3.5 7.8 0.00 0.00 0.00 87 1010.0
20260509140119 52 221 3.5 7.8 0.00 0.00 0.00 87 1010.0
20260509135634 53 192 3.5 7.8 0.00 0.00 0.00 87 1010.0
20260509135120 53 178 4.3 7.8 0.00 0.00 0.00 87 1009.9
20260509134654 52 187 5.2 7.8 0.00 0.00 0.00 87 1009.9
20260509134121 52 197 4.3 7.0 0.00 0.00 0.00 87 1009.9
20260509133635 52 176 4.3 7.0 0.00 0.00 0.00 87 1009.9
20260509133123 52 176 4.3 6.1 0.00 0.00 0.00 87 1010.0
20260509132639 52 191 4.3 6.1 0.00 0.00 0.00 87 1009.9
20260509132126 52 191 2.6 6.1 0.00 0.00 0.00 87 1010.0
20260509131620 52 183 3.5 5.2 0.00 0.00 0.00 87 1010.0
20260509131136 52 214 2.6 5.2 0.00 0.00 0.00 87 1010.0
20260509130622 51 205 3.5 6.1 0.00 0.00 0.00 87 1010.1
20260509130117 51 205 1.7 6.1 0.00 0.00 0.00 87 1010.1
20260509125629 51 212 3.5 6.1 0.00 0.00 0.00 87 1010.1
20260509125123 51 210 1.7 6.1 0.00 0.00 0.00 87 1010.1
20260509124617 50 197 3.5 7.8 0.00 0.00 0.00 87 1010.1
20260509124133 50 208 2.6 7.8 0.00 0.00 0.00 87 1010.0
20260509123626 50 197 3.5 5.2 0.00 0.00 0.00 87 1010.1
20260509123139 49 211 1.7 5.2 0.00 0.00 0.00 87 1010.1
20260509122635 49 206 0.9 5.2 0.00 0.00 0.00 87 1010.1
20260509122120 49 200 2.6 7.8 0.00 0.00 0.00 87 1010.1
20260509121635 49 180 5.2 8.7 0.00 0.00 0.00 87 1010.2
20260509121124 49 195 3.5 7.8 0.00 0.00 0.00 87 1010.2
20260509120658 49 205 3.5 7.0 0.00 0.00 0.00 87 1010.3
20260509120124 49 211 2.6 6.1 0.00 0.00 0.00 87 1010.5
20260509115639 49 176 3.5 7.0 0.00 0.00 0.00 87 1010.4
20260509115126 49 226 2.6 6.1 0.00 0.00 0.00 87 1010.4
20260509114621 49 203 2.6 6.1 0.00 0.00 0.00 87 1010.3
20260509114139 48 198 2.6 6.1 0.00 0.00 0.00 87 1010.2
20260509113647 48 199 2.6 6.1 0.00 0.00 0.00 87 1010.2
20260509113120 48 191 3.5 7.0 0.00 0.00 0.00 87 1010.2
20260509112635 48 198 2.6 7.0 0.00 0.00 0.00 87 1010.2
20260509112122 48 204 1.7 3.5 0.00 0.00 0.00 87 1010.1
20260509111636 48 205 0.9 4.3 0.00 0.00 0.00 87 1010.1
20260509111125 48 204 1.7 4.3 0.00 0.00 0.00 87 1010.1
20260509110638 48 202 1.7 6.1 0.00 0.00 0.00 87 1010.1
20260509110124 48 214 3.5 7.8 0.00 0.00 0.00 87 1010.4
20260509105618 48 203 4.3 7.8 0.00 0.00 0.00 87 1010.3
20260509105128 48 220 1.7 4.3 0.00 0.00 0.00 87 1010.4
20260509104641 48 228 1.7 4.3 0.00 0.00 0.00 87 1010.4
20260509104118 48 223 0.9 4.3 0.00 0.00 0.00 87 1010.4
20260509103632 48 223 1.7 5.2 0.00 0.00 0.00 87 1010.5
20260509103126 48 226 1.7 5.2 0.00 0.00 0.00 87 1010.5
20260509102620 48 189 1.7 3.5 0.00 0.00 0.00 87 1010.5
20260509102134 48 200 0.9 3.5 0.00 0.00 0.00 87 1010.4
20260509101621 48 228 0.0 0.0 0.00 0.00 0.00 87 1010.5
20260509101136 48 228 0.0 0.0 0.00 0.00 0.00 87 1010.5
20260509100623 48 234 0.0 0.0 0.00 0.00 0.00 87 1010.4
20260509100118 48 234 0.0 0.0 0.00 0.00 0.00 87 1010.3
20260509095635 48 234 0.0 2.6 0.00 0.00 0.00 87 1010.3
20260509095120 48 238 0.0 0.0 0.00 0.00 0.00 86 1010.3
20260509094633 48 239 0.0 0.0 0.00 0.00 0.00 86 1010.3
20260509094120 48 239 0.0 0.0 0.00 0.00 0.00 86 1010.2
20260509093634 48 239 0.0 0.0 0.00 0.00 0.00 86 1010.2
20260509093120 48 276 0.0 5.2 0.00 0.00 0.00 86 1010.2
20260509092637 48 276 0.0 5.2 0.00 0.00 0.00 86 1010.0
20260509092144 48 145 1.7 6.1 0.00 0.00 0.00 86 1010.3
20260509091637 48 243 0.9 6.1 0.00 0.00 0.00 86 1010.3
20260509091126 48 249 3.5 7.0 0.00 0.00 0.00 86 1010.2
20260509090619 48 230 0.9 5.2 0.00 0.00 0.00 86 1010.1
20260509090134 48 216 0.9 4.3 0.00 0.00 0.00 86 1010.2
20260509085624 48 216 0.0 6.1 0.00 0.00 0.00 86 1010.1
20260509085154 48 193 2.6 6.1 0.00 0.00 0.00 86 1010.0
20260509084619 48 223 1.7 6.1 0.00 0.00 0.00 86 1010.0
20260509084133 48 225 1.7 6.1 0.00 0.00 0.00 86 1010.0
20260509083627 48 243 0.9 7.0 0.00 0.00 0.00 87 1010.0
20260509083122 48 243 3.5 7.0 0.00 0.00 0.00 87 1010.0
20260509082618 48 179 0.9 5.2 0.00 0.00 0.00 87 1009.9
20260509082133 48 147 0.0 0.0 0.00 0.00 0.00 87 1010.0
20260509081619 48 137 0.0 0.0 0.00 0.00 0.00 87 1009.9
20260509081134 48 137 0.0 0.0 0.00 0.00 0.00 87 1010.1
20260509080621 48 137 0.0 0.0 0.00 0.00 0.00 87 1009.9
20260509080135 48 137 0.0 0.0 0.00 0.00 0.00 87 1009.9
20260509075623 48 60 0.0 0.0 0.00 0.00 0.00 87 1009.9
20260509075137 48 60 0.0 0.0 0.00 0.00 0.00 86 1009.8
20260509074623 48 60 0.0 0.0 0.00 0.00 0.00 86 1009.8
20260509074137 48 60 0.0 0.0 0.00 0.00 0.00 86 1009.8
20260509073623 48 58 0.0 0.0 0.00 0.00 0.00 86 1009.8
20260509073138 48 58 0.0 0.0 0.00 0.00 0.00 86 1009.7
20260509072627 48 58 0.0 0.0 0.00 0.00 0.00 86 1009.7
20260509072159 48 58 0.0 0.0 0.00 0.00 0.00 86 1009.8
20260509071644 48 58 0.0 0.0 0.00 0.00 0.00 86 1009.8
20260509071139 48 58 0.0 0.0 0.00 0.00 0.00 86 1009.8
20260509070625 48 58 0.0 0.0 0.00 0.00 0.00 86 1009.8
20260509070119 48 58 0.0 0.0 0.00 0.00 0.00 85 1009.9
20260509065636 49 58 0.0 0.0 0.00 0.00 0.00 85 1009.9
20260509065121 49 58 0.0 0.0 0.00 0.00 0.00 85 1010.0
20260509064617 49 58 0.0 0.0 0.00 0.00 0.00 85 1010.2
20260509064128 49 58 0.0 0.0 0.00 0.00 0.00 85 1010.3
20260509063643 49 58 0.0 0.0 0.00 0.00 0.00 85 1010.4
20260509063128 49 58 0.0 0.0 0.00 0.00 0.00 85 1010.4
20260509062623 49 58 0.0 0.0 0.00 0.00 0.00 85 1010.6
20260509062157 49 58 0.0 0.0 0.00 0.00 0.00 85 1010.7
20260509061623 49 58 0.0 0.0 0.00 0.00 0.00 85 1010.6
20260509061119 49 58 0.0 0.0 0.00 0.00 0.00 84 1010.8
20260509060633 49 58 0.0 0.0 0.00 0.00 0.00 84 1010.8
20260509060140 49 58 0.0 0.0 0.00 0.00 0.00 84 1010.8
20260509055637 49 58 0.0 0.0 0.00 0.00 0.00 84 1010.9
20260509055144 49 58 0.0 0.0 0.00 0.00 0.00 84 1011.0
20260509054636 50 58 0.0 0.0 0.00 0.00 0.00 84 1011.0
20260509054124 50 58 0.0 0.0 0.00 0.00 0.00 84 1011.1
20260509053638 50 58 0.0 0.0 0.00 0.00 0.00 84 1011.1
20260509053145 50 59 0.0 0.0 0.00 0.00 0.00 84 1011.2
20260509052622 50 58 0.0 0.0 0.00 0.00 0.00 84 1011.2
20260509052136 50 59 0.0 0.0 0.00 0.00 0.00 84 1011.2
20260509051643 50 59 0.0 0.0 0.00 0.00 0.00 83 1011.2
20260509051155 50 58 0.0 0.0 0.00 0.00 0.00 83 1011.2
20260509050620 50 58 0.0 0.0 0.00 0.00 0.00 83 1011.4
20260509050155 50 59 0.0 0.0 0.00 0.00 0.00 83 1011.4
20260509045642 50 59 0.0 0.0 0.00 0.00 0.00 83 1011.6
20260509045134 50 59 0.0 2.6 0.00 0.00 0.00 83 1011.6
20260509044623 50 59 0.0 2.6 0.00 0.00 0.00 83 1011.5
20260509044139 50 60 0.0 1.7 0.00 0.00 0.00 84 1011.5
20260509043625 50 60 0.0 3.5 0.00 0.00 0.00 84 1011.7
20260509043119 49 62 0.9 3.5 0.00 0.00 0.00 84 1011.7
20260509042656 49 67 1.7 3.5 0.00 0.00 0.00 85 1011.8
20260509042122 49 47 0.0 0.9 0.00 0.00 0.00 85 1011.9
20260509041637 49 43 0.0 0.0 0.00 0.00 0.00 85 1011.8
20260509041125 49 43 0.0 0.0 0.00 0.00 0.00 85 1011.8
20260509040618 49 40 0.0 0.0 0.00 0.00 0.00 85 1011.7
20260509040131 49 40 0.0 0.0 0.00 0.00 0.00 85 1011.8
20260509035618 49 40 0.0 0.0 0.00 0.00 0.00 86 1011.7
20260509035132 49 40 0.0 0.0 0.00 0.00 0.00 85 1011.7
20260509034621 49 40 0.0 0.0 0.00 0.00 0.00 85 1011.7
20260509034137 49 39 0.0 0.0 0.00 0.00 0.00 85 1011.6
20260509033622 49 313 0.0 0.0 0.00 0.00 0.00 85 1011.4
20260509033153 49 222 0.0 0.0 0.00 0.00 0.00 85 1011.4
20260509032626 49 222 0.0 0.0 0.00 0.00 0.00 85 1011.3
20260509032119 49 222 0.0 0.0 0.00 0.00 0.00 85 1011.2
20260509031633 49 222 0.0 0.0 0.00 0.00 0.00 85 1011.2
20260509031129 49 222 0.0 0.0 0.00 0.00 0.00 85 1011.2
20260509030621 49 222 0.0 0.0 0.00 0.00 0.00 84 1011.2
20260509030136 49 222 0.0 0.0 0.00 0.00 0.00 84 1011.3
20260509025625 49 255 0.0 0.0 0.00 0.00 0.00 84 1011.2
20260509025138 49 255 0.0 0.0 0.00 0.00 0.00 84 1011.4
20260509024646 49 255 0.0 0.0 0.00 0.00 0.00 84 1011.4
20260509024121 49 255 0.0 0.0 0.00 0.00 0.00 84 1011.3
20260509023635 49 255 0.0 0.0 0.00 0.00 0.00 83 1011.4
20260509023121 49 255 0.0 0.0 0.00 0.00 0.00 83 1011.3
20260509022638 49 255 0.0 3.5 0.00 0.00 0.00 83 1011.3
20260509022145 50 274 0.0 5.2 0.00 0.00 0.00 83 1011.4
20260509021618 50 274 0.9 2.6 0.00 0.00 0.00 83 1011.4
20260509021135 50 236 0.0 0.0 0.00 0.00 0.00 83 1011.3
20260509020642 50 236 0.0 0.0 0.00 0.00 0.00 83 1011.3
20260509020135 50 236 0.0 0.0 0.00 0.00 0.00 83 1011.6
20260509015625 50 236 0.0 0.0 0.00 0.00 0.00 83 1011.7
20260509015119 50 236 0.0 0.0 0.00 0.00 0.00 83 1011.7
20260509014634 49 236 0.0 0.0 0.00 0.00 0.00 82 1011.6
20260509014122 49 236 0.0 0.0 0.00 0.00 0.00 82 1011.7
20260509013631 49 236 0.0 0.0 0.00 0.00 0.00 82 1011.4
20260509013117 49 236 0.0 0.0 0.00 0.00 0.00 82 1011.5
20260509012634 49 236 0.0 0.0 0.00 0.00 0.00 81 1011.5
20260509012128 50 236 0.0 0.0 0.00 0.00 0.00 81 1011.5
20260509011624 50 236 0.0 0.0 0.00 0.00 0.00 81 1011.4
20260509011121 50 236 0.0 0.0 0.00 0.00 0.00 81 1011.3
20260509010633 50 236 0.0 0.0 0.00 0.00 0.00 80 1011.3
20260509010139 50 236 0.0 0.0 0.00 0.00 0.00 78 1011.2
20260509005626 50 236 0.0 0.0 0.00 0.00 0.00 77 1011.1
20260509005139 51 236 0.0 0.0 0.00 0.00 0.00 76 1011.1
20260509004634 51 236 0.0 0.0 0.00 0.00 0.00 75 1011.1
20260509004124 52 236 0.0 0.0 0.00 0.00 0.00 74 1010.9
20260509003636 52 236 0.0 0.0 0.00 0.00 0.00 74 1010.9
20260509003124 53 236 0.0 0.0 0.00 0.00 0.00 72 1010.8
20260509002639 54 236 0.0 0.0 0.00 0.00 0.00 71 1010.7
20260509002124 54 236 0.0 0.0 0.00 0.00 0.00 72 1010.7
20260509001638 55 236 0.0 0.0 0.00 0.00 0.00 72 1010.7
20260509001127 55 237 0.0 0.0 0.00 0.00 0.00 71 1010.8
20260509000619 55 237 0.0 0.0 0.00 0.00 0.00 70 1010.8
20260509000135 56 237 0.0 0.0 0.00 0.00 0.00 70 1010.9
20260508235644 56 237 0.0 0.0 0.00 0.00 0.00 70 1011.0
20260508235159 56 237 0.0 0.0 0.00 0.00 0.00 70 1010.9
20260508234624 56 237 0.0 0.0 0.00 0.00 0.00 69 1011.0
20260508234119 56 237 0.0 0.0 0.00 0.00 0.00 65 1011.0
20260508233649 57 237 0.0 0.0 0.00 0.00 0.00 66 1011.0
20260508233121 57 237 0.0 0.0 0.00 0.00 0.00 64 1010.9
20260508232638 57 237 0.0 0.0 0.00 0.00 0.00 61 1011.0
20260508232123 58 237 0.0 1.7 0.00 0.00 0.00 60 1010.9
20260508231635 58 237 0.0 2.6 0.00 0.00 0.00 61 1011.0
20260508231123 58 237 0.0 3.5 0.00 0.00 0.00 59 1010.9
20260508230617 58 237 0.9 4.3 0.00 0.00 0.00 58 1010.9
20260508230131 59 262 0.9 7.0 0.00 0.00 0.00 58 1010.8
20260508225643 59 214 3.5 9.6 0.00 0.00 0.00 55 1010.8
20260508225156 60 230 4.3 9.6 0.00 0.00 0.00 54 1010.8
20260508224622 60 227 2.6 7.8 0.00 0.00 0.00 54 1010.7
20260508224200 60 276 1.7 7.0 0.00 0.00 0.00 56 1010.8
20260508223643 60 245 0.9 7.0 0.00 0.00 0.00 57 1010.7
20260508223137 60 245 3.5 7.8 0.00 0.00 0.00 56 1010.7
20260508222646 59 212 2.6 8.7 0.00 0.00 0.00 57 1010.7
20260508222118 59 241 4.3 8.7 0.00 0.00 0.00 56 1010.8
20260508221648 60 268 0.9 11.3 0.00 0.00 0.00 56 1010.8
20260508221141 60 251 0.9 11.3 0.00 0.00 0.00 57 1011.0
20260508220627 59 170 1.7 11.3 0.00 0.00 0.00 59 1011.0
20260508220141 58 205 2.6 12.2 0.00 0.00 0.00 60 1011.2
20260508215635 58 204 2.6 7.0 0.00 0.00 0.00 60 1011.2
20260508215121 58 225 3.5 8.7 0.00 0.00 0.00 60 1011.2
20260508214636 58 205 4.3 9.6 0.00 0.00 0.00 60 1011.3
20260508214124 58 195 4.3 9.6 0.00 0.00 0.00 60 1011.3
20260508213658 58 186 2.6 20.0 0.00 0.00 0.00 59 1011.3
20260508213124 58 178 10.4 20.0 0.00 0.00 0.00 58 1011.3
20260508212639 58 233 9.6 16.5 0.00 0.00 0.00 58 1011.3
20260508212127 58 250 9.6 14.8 0.00 0.00 0.00 58 1011.3
20260508211621 58 248 8.7 18.2 0.00 0.00 0.00 58 1011.2
20260508211138 59 254 12.2 22.6 0.00 0.00 0.00 57 1011.3
20260508210646 59 214 7.8 21.7 0.00 0.00 0.00 57 1011.4
20260508210119 59 226 14.8 21.7 0.00 0.00 0.00 56 1011.4
20260508205634 59 244 9.6 14.8 0.00 0.00 0.00 56 1011.3
20260508205140 60 226 9.6 15.6 0.00 0.00 0.00 55 1011.2
20260508204642 60 261 8.7 16.5 0.00 0.00 0.00 55 1011.1
20260508204156 60 185 10.4 19.1 0.00 0.00 0.00 54 1011.0
20260508203622 60 216 10.4 18.2 0.00 0.00 0.00 54 1011.0
20260508203137 60 224 7.8 18.2 0.00 0.00 0.00 56 1011.1
20260508202626 60 257 7.0 13.9 0.00 0.00 0.00 57 1011.0
20260508202137 60 239 6.1 11.3 0.00 0.00 0.00 57 1011.1
20260508201624 60 218 7.0 11.3 0.00 0.00 0.00 57 1011.0
20260508201120 59 223 4.3 10.4 0.00 0.00 0.00 59 1011.1
20260508200633 59 210 3.5 9.6 0.00 0.00 0.00 59 1011.2
20260508200121 58 229 6.1 12.2 0.00 0.00 0.00 61 1011.3
20260508195635 58 245 5.2 17.4 0.00 0.00 0.00 61 1011.4
20260508195124 58 230 12.2 26.1 0.00 0.00 0.00 60 1011.5
20260508194617 58 241 11.3 26.1 0.00 0.00 0.00 59 1011.6
20260508194133 58 247 6.1 14.8 0.00 0.00 0.00 59 1011.7
20260508193620 59 234 6.1 12.2 0.00 0.00 0.00 57 1011.5
20260508193135 59 265 4.3 13.0 0.00 0.00 0.00 56 1011.3
20260508192624 59 278 4.3 13.9 0.00 0.00 0.00 55 1011.3
20260508192117 59 265 7.8 18.2 0.00 0.00 0.00 53 1011.3
20260508191632 60 241 8.7 18.2 0.00 0.00 0.00 51 1011.4
20260508191122 61 247 8.7 15.6 0.00 0.00 0.00 49 1011.2
20260508190634 61 230 6.1 16.5 0.00 0.00 0.00 49 1011.1
20260508190122 62 275 9.6 16.5 0.00 0.00 0.00 47 1011.0
20260508185637 62 241 9.6 15.6 0.00 0.00 0.00 48 1011.1
20260508185144 62 173 7.8 13.0 0.00 0.00 0.00 47 1011.3
20260508184635 62 174 6.1 13.0 0.00 0.00 0.00 49 1011.1
20260508184121 61 218 7.8 14.8 0.00 0.00 0.00 49 1011.3
20260508183615 60 230 3.5 14.8 0.00 0.00 0.00 49 1011.4
20260508183128 60 224 7.0 19.1 0.00 0.00 0.00 48 1011.5
20260508182624 60 178 12.2 19.1 0.00 0.00 0.00 47 1011.5
20260508182157 60 245 10.4 19.1 0.00 0.00 0.00 47 1011.4
20260508181624 60 272 7.0 21.7 0.00 0.00 0.00 47 1011.4
20260508181141 61 257 13.9 21.7 0.00 0.00 0.00 44 1011.6
20260508180626 61 234 7.0 18.2 0.00 0.00 0.00 44 1011.5
20260508180139 62 233 10.4 18.2 0.00 0.00 0.00 43 1011.4
20260508175633 63 197 7.0 13.9 0.00 0.00 0.00 42 1011.4
20260508175120 63 245 1.7 15.6 0.00 0.00 0.00 44 1011.3
20260508174635 63 275 10.4 21.7 0.00 0.00 0.00 45 1011.5
20260508174145 63 257 13.9 21.7 0.00 0.00 0.00 41 1011.7
20260508173657 63 218 7.0 13.9 0.00 0.00 0.00 45 1011.8
20260508173122 62 206 7.8 17.4 0.00 0.00 0.00 44 1011.6
20260508172658 62 232 7.8 17.4 0.00 0.00 0.00 41 1011.7
20260508172123 63 227 9.6 15.6 0.00 0.00 0.00 44 1011.9
20260508171618 62 226 8.7 13.9 0.00 0.00 0.00 47 1011.8
20260508171131 61 243 9.6 18.2 0.00 0.00 0.00 45 1011.9
20260508170625 61 278 8.7 18.2 0.00 0.00 0.00 45 1011.8
20260508170120 61 247 11.3 21.7 0.00 0.00 0.00 46 1012.0
20260508165635 61 244 6.1 13.9 0.00 0.00 0.00 46 1012.0
20260508165120 60 270 7.0 15.6 0.00 0.00 0.00 45 1012.0
20260508164634 60 234 6.1 15.6 0.00 0.00 0.00 47 1012.1
20260508164130 61 232 2.6 14.8 0.00 0.00 0.00 45 1012.2
20260508163624 61 237 9.6 16.5 0.00 0.00 0.00 48 1012.1
20260508163117 60 266 10.4 17.4 0.00 0.00 0.00 47 1012.2
20260508162633 60 220 3.5 17.4 0.00 0.00 0.00 48 1012.3
20260508162140 60 241 6.1 15.6 0.00 0.00 0.00 49 1012.4
20260508161626 60 219 7.8 15.6 0.00 0.00 0.00 48 1012.4
20260508161120 60 306 5.2 13.9 0.00 0.00 0.00 50 1012.5
20260508160653 60 267 5.2 11.3 0.00 0.00 0.00 54 1012.7
20260508160120 58 168 6.1 9.6 0.00 0.00 0.00 51 1012.6
20260508155636 58 283 5.2 14.8 0.00 0.00 0.00 51 1012.7
20260508155144 59 309 10.4 14.8 0.00 0.00 0.00 50 1012.8
20260508154657 58 271 4.3 16.5 0.00 0.00 0.00 55 1012.8
20260508154126 58 262 8.7 15.6 0.00 0.00 0.00 53 1012.8
20260508153619 58 286 4.3 14.8 0.00 0.00 0.00 51 1012.9
20260508153134 57 285 6.1 14.8 0.00 0.00 0.00 56 1013.0
20260508152621 57 237 4.3 15.6 0.00 0.00 0.00 50 1012.9
20260508152135 58 284 10.4 15.6 0.00 0.00 0.00 50 1013.0
20260508151622 58 215 5.2 19.1 0.00 0.00 0.00 51 1012.8
20260508151118 58 266 11.3 21.7 0.00 0.00 0.00 50 1012.9